Year,Month,Day,Hour,Minute,Value (Times are PST for temperature in C)
2015,05,03,00,00,6.70
2015,05,03,00,01,6.70
2015,05,03,00,02,6.70
2015,05,03,00,03,6.70
2015,05,03,00,04,6.70
2015,05,03,00,05,6.70
2015,05,03,00,06,6.70
2015,05,03,00,07,6.70
2015,05,03,00,08,6.70
2015,05,03,00,09,6.70
2015,05,03,00,10,6.70
2015,05,03,00,11,6.70
2015,05,03,00,12,6.70
2015,05,03,00,13,6.60
2015,05,03,00,14,6.60
2015,05,03,00,15,6.60
2015,05,03,00,16,6.60
2015,05,03,00,17,6.60
2015,05,03,00,18,6.60
2015,05,03,00,19,6.60
2015,05,03,00,20,6.60
2015,05,03,00,21,6.60
2015,05,03,00,22,6.50
2015,05,03,00,23,6.50
2015,05,03,00,24,6.50
2015,05,03,00,25,6.50
2015,05,03,00,26,6.40
2015,05,03,00,27,6.40
2015,05,03,00,28,6.40
2015,05,03,00,29,6.40
2015,05,03,00,30,6.40
2015,05,03,00,31,6.40
2015,05,03,00,32,6.40
2015,05,03,00,33,6.40
2015,05,03,00,34,6.40
2015,05,03,00,35,6.40
2015,05,03,00,36,6.40
2015,05,03,00,37,6.40
2015,05,03,00,38,6.40
2015,05,03,00,39,6.40
2015,05,03,00,40,6.40
2015,05,03,00,41,6.40
2015,05,03,00,42,6.40
2015,05,03,00,43,6.40
2015,05,03,00,44,6.40
2015,05,03,00,45,6.40
2015,05,03,00,46,6.40
2015,05,03,00,47,6.40
2015,05,03,00,48,6.40
2015,05,03,00,49,6.30
2015,05,03,00,50,6.30
2015,05,03,00,51,6.30
2015,05,03,00,52,6.30
2015,05,03,00,53,6.20
2015,05,03,00,54,6.20
2015,05,03,00,55,6.20
2015,05,03,00,56,6.20
2015,05,03,00,57,6.10
2015,05,03,00,58,6.10
2015,05,03,00,59,6.00
2015,05,03,01,00,6.00
2015,05,03,01,01,5.90
2015,05,03,01,02,5.90
2015,05,03,01,03,5.90
2015,05,03,01,04,5.90
2015,05,03,01,05,5.80
2015,05,03,01,06,5.80
2015,05,03,01,07,5.80
2015,05,03,01,08,5.80
2015,05,03,01,09,5.80
2015,05,03,01,10,5.70
2015,05,03,01,11,5.70
2015,05,03,01,12,5.70
2015,05,03,01,13,5.60
2015,05,03,01,14,5.60
2015,05,03,01,15,5.50
2015,05,03,01,16,5.50
2015,05,03,01,17,5.40
2015,05,03,01,18,5.40
2015,05,03,01,19,5.30
2015,05,03,01,20,5.30
2015,05,03,01,21,5.30
2015,05,03,01,22,5.20
2015,05,03,01,23,5.20
2015,05,03,01,24,5.20
2015,05,03,01,25,5.20
2015,05,03,01,26,5.20
2015,05,03,01,27,5.10
2015,05,03,01,28,5.10
2015,05,03,01,29,5.10
2015,05,03,01,30,5.10
2015,05,03,01,31,5.10
2015,05,03,01,32,5.00
2015,05,03,01,33,5.00
2015,05,03,01,34,5.00
2015,05,03,01,35,5.00
2015,05,03,01,36,4.90
2015,05,03,01,37,4.90
2015,05,03,01,38,4.90
2015,05,03,01,39,4.90
2015,05,03,01,40,4.90
2015,05,03,01,41,4.80
2015,05,03,01,42,4.80
2015,05,03,01,43,4.80
2015,05,03,01,44,4.80
2015,05,03,01,45,4.80
2015,05,03,01,46,4.80
2015,05,03,01,47,4.80
2015,05,03,01,48,4.80
2015,05,03,01,49,4.70
2015,05,03,01,50,4.70
2015,05,03,01,51,4.70
2015,05,03,01,52,4.70
2015,05,03,01,53,4.70
2015,05,03,01,54,4.70
2015,05,03,01,55,4.70
2015,05,03,01,56,4.70
2015,05,03,01,57,4.70
2015,05,03,01,58,4.70
2015,05,03,01,59,4.60
2015,05,03,02,00,4.60
2015,05,03,02,01,4.60
2015,05,03,02,02,4.60
2015,05,03,02,03,4.50
2015,05,03,02,04,4.50
2015,05,03,02,05,4.50
2015,05,03,02,06,4.40
2015,05,03,02,07,4.40
2015,05,03,02,08,4.40
2015,05,03,02,09,4.40
2015,05,03,02,10,4.40
2015,05,03,02,11,4.40
2015,05,03,02,12,4.40
2015,05,03,02,13,4.40
2015,05,03,02,14,4.40
2015,05,03,02,15,4.30
2015,05,03,02,16,4.30
2015,05,03,02,17,4.30
2015,05,03,02,18,4.30
2015,05,03,02,19,4.30
2015,05,03,02,20,4.30
2015,05,03,02,21,4.30
2015,05,03,02,22,4.20
2015,05,03,02,23,4.20
2015,05,03,02,24,4.20
2015,05,03,02,25,4.20
2015,05,03,02,26,4.20
2015,05,03,02,27,4.20
2015,05,03,02,28,4.20
2015,05,03,02,29,4.20
2015,05,03,02,30,4.20
2015,05,03,02,31,4.20
2015,05,03,02,32,4.20
2015,05,03,02,33,4.20
2015,05,03,02,34,4.20
2015,05,03,02,35,4.20
2015,05,03,02,36,4.20
2015,05,03,02,37,4.20
2015,05,03,02,38,4.10
2015,05,03,02,39,4.10
2015,05,03,02,40,4.10
2015,05,03,02,41,4.10
2015,05,03,02,42,4.10
2015,05,03,02,43,4.10
2015,05,03,02,44,4.10
2015,05,03,02,45,4.10
2015,05,03,02,46,4.10
2015,05,03,02,47,4.10
2015,05,03,02,48,4.00
2015,05,03,02,49,4.00
2015,05,03,02,50,4.00
2015,05,03,02,51,4.00
2015,05,03,02,52,3.90
2015,05,03,02,53,3.90
2015,05,03,02,54,3.90
2015,05,03,02,55,3.90
2015,05,03,02,56,3.90
2015,05,03,02,57,3.90
2015,05,03,02,58,3.90
2015,05,03,02,59,3.90
2015,05,03,03,00,3.80
2015,05,03,03,01,3.80
2015,05,03,03,02,3.80
2015,05,03,03,03,3.80
2015,05,03,03,04,3.80
2015,05,03,03,05,3.70
2015,05,03,03,06,3.70
2015,05,03,03,07,3.70
2015,05,03,03,08,3.70
2015,05,03,03,09,3.70
2015,05,03,03,10,3.70
2015,05,03,03,11,3.70
2015,05,03,03,12,3.70
2015,05,03,03,13,3.70
2015,05,03,03,14,3.70
2015,05,03,03,15,3.60
2015,05,03,03,16,3.60
2015,05,03,03,17,3.60
2015,05,03,03,18,3.60
2015,05,03,03,19,3.70
2015,05,03,03,20,3.70
2015,05,03,03,21,3.70
2015,05,03,03,22,3.70
2015,05,03,03,23,3.70
2015,05,03,03,24,3.70
2015,05,03,03,25,3.70
2015,05,03,03,26,3.70
2015,05,03,03,27,3.70
2015,05,03,03,28,3.70
2015,05,03,03,29,3.60
2015,05,03,03,30,3.60
2015,05,03,03,31,3.50
2015,05,03,03,32,3.50
2015,05,03,03,33,3.50
2015,05,03,03,34,3.40
2015,05,03,03,35,3.40
2015,05,03,03,36,3.40
2015,05,03,03,37,3.30
2015,05,03,03,38,3.30
2015,05,03,03,39,3.30
2015,05,03,03,40,3.30
2015,05,03,03,41,3.30
2015,05,03,03,42,3.20
2015,05,03,03,43,3.20
2015,05,03,03,44,3.20
2015,05,03,03,45,3.20
2015,05,03,03,46,3.20
2015,05,03,03,47,3.20
2015,05,03,03,48,3.20
2015,05,03,03,49,3.20
2015,05,03,03,50,3.20
2015,05,03,03,51,3.20
2015,05,03,03,52,3.20
2015,05,03,03,53,3.20
2015,05,03,03,54,3.10
2015,05,03,03,55,3.10
2015,05,03,03,56,3.10
2015,05,03,03,57,3.10
2015,05,03,03,58,3.10
2015,05,03,03,59,3.10
2015,05,03,04,00,3.10
2015,05,03,04,01,3.10
2015,05,03,04,02,3.10
2015,05,03,04,03,3.10
2015,05,03,04,04,3.10
2015,05,03,04,05,3.10
2015,05,03,04,06,3.10
2015,05,03,04,07,3.10
2015,05,03,04,08,3.10
2015,05,03,04,09,3.10
2015,05,03,04,10,3.20
2015,05,03,04,11,3.20
2015,05,03,04,12,3.20
2015,05,03,04,13,3.20
2015,05,03,04,14,3.20
2015,05,03,04,15,3.30
2015,05,03,04,16,3.30
2015,05,03,04,17,3.30
2015,05,03,04,18,3.30
2015,05,03,04,19,3.30
2015,05,03,04,20,3.30
2015,05,03,04,21,3.30
2015,05,03,04,22,3.30
2015,05,03,04,23,3.30
2015,05,03,04,24,3.30
2015,05,03,04,25,3.30
2015,05,03,04,26,3.30
2015,05,03,04,27,3.30
2015,05,03,04,28,3.30
2015,05,03,04,29,3.30
2015,05,03,04,30,3.30
2015,05,03,04,31,3.30
2015,05,03,04,32,3.30
2015,05,03,04,33,3.30
2015,05,03,04,34,3.20
2015,05,03,04,35,3.20
2015,05,03,04,36,3.20
2015,05,03,04,37,3.20
2015,05,03,04,38,3.20
2015,05,03,04,39,3.20
2015,05,03,04,40,3.20
2015,05,03,04,41,3.20
2015,05,03,04,42,3.20
2015,05,03,04,43,3.20
2015,05,03,04,44,3.20
2015,05,03,04,45,3.20
2015,05,03,04,46,3.20
2015,05,03,04,47,3.10
2015,05,03,04,48,3.10
2015,05,03,04,49,3.10
2015,05,03,04,50,3.10
2015,05,03,04,51,3.10
2015,05,03,04,52,3.10
2015,05,03,04,53,3.10
2015,05,03,04,54,3.10
2015,05,03,04,55,3.10
2015,05,03,04,56,3.10
2015,05,03,04,57,3.10
2015,05,03,04,58,3.10
2015,05,03,04,59,3.10
2015,05,03,05,00,3.10
2015,05,03,05,01,3.10
2015,05,03,05,02,3.10
2015,05,03,05,03,3.10
2015,05,03,05,04,3.00
2015,05,03,05,05,3.00
2015,05,03,05,06,3.00
2015,05,03,05,07,2.90
2015,05,03,05,08,2.90
2015,05,03,05,09,2.90
2015,05,03,05,10,2.90
2015,05,03,05,11,2.90
2015,05,03,05,12,2.90
2015,05,03,05,13,2.90
2015,05,03,05,14,2.80
2015,05,03,05,15,2.80
2015,05,03,05,16,2.80
2015,05,03,05,17,2.80
2015,05,03,05,18,2.80
2015,05,03,05,19,2.80
2015,05,03,05,20,2.80
2015,05,03,05,21,2.70
2015,05,03,05,22,2.80
2015,05,03,05,23,2.80
2015,05,03,05,24,2.80
2015,05,03,05,25,2.80
2015,05,03,05,26,2.80
2015,05,03,05,27,2.80
2015,05,03,05,28,2.80
2015,05,03,05,29,2.80
2015,05,03,05,30,2.80
2015,05,03,05,31,2.80
2015,05,03,05,32,2.80
2015,05,03,05,33,2.80
2015,05,03,05,34,2.80
2015,05,03,05,35,2.80
2015,05,03,05,36,2.80
2015,05,03,05,37,2.80
2015,05,03,05,38,2.80
2015,05,03,05,39,2.80
2015,05,03,05,40,2.80
2015,05,03,05,41,2.70
2015,05,03,05,42,2.70
2015,05,03,05,43,2.70
2015,05,03,05,44,2.70
2015,05,03,05,45,2.60
2015,05,03,05,46,2.60
2015,05,03,05,47,2.60
2015,05,03,05,48,2.60
2015,05,03,05,49,2.50
2015,05,03,05,50,2.50
2015,05,03,05,51,2.40
2015,05,03,05,52,2.40
2015,05,03,05,53,2.40
2015,05,03,05,54,2.40
2015,05,03,05,55,2.40
2015,05,03,05,56,2.40
2015,05,03,05,57,2.40
2015,05,03,05,58,2.40
2015,05,03,05,59,2.40
2015,05,03,06,00,2.30
2015,05,03,06,01,2.30
2015,05,03,06,02,2.30
2015,05,03,06,03,2.30
2015,05,03,06,04,2.30
2015,05,03,06,05,2.30
2015,05,03,06,06,2.30
2015,05,03,06,07,2.30
2015,05,03,06,08,2.30
2015,05,03,06,09,2.30
2015,05,03,06,10,2.30
2015,05,03,06,11,2.30
2015,05,03,06,12,2.30
2015,05,03,06,13,2.30
2015,05,03,06,14,2.40
2015,05,03,06,15,2.40
2015,05,03,06,16,2.40
2015,05,03,06,17,2.40
2015,05,03,06,18,2.50
2015,05,03,06,19,2.50
2015,05,03,06,20,2.50
2015,05,03,06,21,2.60
2015,05,03,06,22,2.60
2015,05,03,06,23,2.60
2015,05,03,06,24,2.60
2015,05,03,06,25,2.60
2015,05,03,06,26,2.60
2015,05,03,06,27,2.60
2015,05,03,06,28,2.60
2015,05,03,06,29,2.60
2015,05,03,06,30,2.60
2015,05,03,06,31,2.60
2015,05,03,06,32,2.70
2015,05,03,06,33,2.70
2015,05,03,06,34,2.70
2015,05,03,06,35,2.70
2015,05,03,06,36,2.70
2015,05,03,06,37,2.70
2015,05,03,06,38,2.70
2015,05,03,06,39,2.70
2015,05,03,06,40,2.70
2015,05,03,06,41,2.80
2015,05,03,06,42,2.80
2015,05,03,06,43,2.80
2015,05,03,06,44,2.80
2015,05,03,06,45,2.80
2015,05,03,06,46,2.80
2015,05,03,06,47,2.80
2015,05,03,06,48,2.80
2015,05,03,06,49,2.80
2015,05,03,06,50,2.90
2015,05,03,06,51,2.90
2015,05,03,06,52,2.90
2015,05,03,06,53,2.90
2015,05,03,06,54,3.00
2015,05,03,06,55,3.00
2015,05,03,06,56,3.00
2015,05,03,06,57,3.00
2015,05,03,06,58,3.10
2015,05,03,06,59,3.10
2015,05,03,07,00,3.10
2015,05,03,07,01,3.20
2015,05,03,07,02,3.20
2015,05,03,07,03,3.30
2015,05,03,07,04,3.30
2015,05,03,07,05,3.40
2015,05,03,07,06,3.50
2015,05,03,07,07,3.60
2015,05,03,07,08,3.70
2015,05,03,07,09,3.70
2015,05,03,07,10,3.80
2015,05,03,07,11,3.90
2015,05,03,07,12,4.00
2015,05,03,07,13,4.10
2015,05,03,07,14,4.10
2015,05,03,07,15,4.20
2015,05,03,07,16,4.20
2015,05,03,07,17,4.30
2015,05,03,07,18,4.40
2015,05,03,07,19,4.50
2015,05,03,07,20,4.60
2015,05,03,07,21,4.60
2015,05,03,07,22,4.70
2015,05,03,07,23,4.80
2015,05,03,07,24,4.80
2015,05,03,07,25,4.90
2015,05,03,07,26,5.00
2015,05,03,07,27,5.00
2015,05,03,07,28,5.10
2015,05,03,07,29,5.20
2015,05,03,07,30,5.30
2015,05,03,07,31,5.30
2015,05,03,07,32,5.40
2015,05,03,07,33,5.50
2015,05,03,07,34,5.60
2015,05,03,07,35,5.70
2015,05,03,07,36,5.70
2015,05,03,07,37,5.80
2015,05,03,07,38,5.80
2015,05,03,07,39,5.90
2015,05,03,07,40,6.00
2015,05,03,07,41,6.00
2015,05,03,07,42,6.10
2015,05,03,07,43,6.20
2015,05,03,07,44,6.30
2015,05,03,07,45,6.40
2015,05,03,07,46,6.50
2015,05,03,07,47,6.60
2015,05,03,07,48,6.70
2015,05,03,07,49,6.80
2015,05,03,07,50,6.90
2015,05,03,07,51,7.00
2015,05,03,07,52,7.00
2015,05,03,07,53,7.10
2015,05,03,07,54,7.20
2015,05,03,07,55,7.30
2015,05,03,07,56,7.40
2015,05,03,07,57,7.50
2015,05,03,07,58,7.60
2015,05,03,07,59,7.60
2015,05,03,08,00,7.70
2015,05,03,08,01,7.80
2015,05,03,08,02,7.90
2015,05,03,08,03,7.90
2015,05,03,08,04,8.00
2015,05,03,08,05,8.10
2015,05,03,08,06,8.20
2015,05,03,08,07,8.30
2015,05,03,08,08,8.40
2015,05,03,08,09,8.40
2015,05,03,08,10,8.50
2015,05,03,08,11,8.60
2015,05,03,08,12,8.70
2015,05,03,08,13,8.70
2015,05,03,08,14,8.80
2015,05,03,08,15,8.90
2015,05,03,08,16,8.90
2015,05,03,08,17,9.00
2015,05,03,08,18,9.10
2015,05,03,08,19,9.20
2015,05,03,08,20,9.30
2015,05,03,08,21,9.30
2015,05,03,08,22,9.40
2015,05,03,08,23,9.40
2015,05,03,08,24,9.50
2015,05,03,08,25,9.60
2015,05,03,08,26,9.70
2015,05,03,08,27,9.70
2015,05,03,08,28,9.80
2015,05,03,08,29,9.80
2015,05,03,08,30,9.90
2015,05,03,08,31,9.90
2015,05,03,08,32,10.00
2015,05,03,08,33,10.10
2015,05,03,08,34,10.10
2015,05,03,08,35,10.20
2015,05,03,08,36,10.20
2015,05,03,08,37,10.30
2015,05,03,08,38,10.30
2015,05,03,08,39,10.30
2015,05,03,08,40,10.40
2015,05,03,08,41,10.40
2015,05,03,08,42,10.40
2015,05,03,08,43,10.50
2015,05,03,08,44,10.50
2015,05,03,08,45,10.60
2015,05,03,08,46,10.60
2015,05,03,08,47,10.70
2015,05,03,08,48,10.70
2015,05,03,08,49,10.70
2015,05,03,08,50,10.80
2015,05,03,08,51,10.80
2015,05,03,08,52,10.80
2015,05,03,08,53,10.80
2015,05,03,08,54,10.80
2015,05,03,08,55,10.90
2015,05,03,08,56,10.90
2015,05,03,08,57,10.90
2015,05,03,08,58,10.90
2015,05,03,08,59,11.00
2015,05,03,09,00,11.00
2015,05,03,09,01,11.10
2015,05,03,09,02,11.10
2015,05,03,09,03,11.10
2015,05,03,09,04,11.10
2015,05,03,09,05,11.10
2015,05,03,09,06,11.20
2015,05,03,09,07,11.20
2015,05,03,09,08,11.20
2015,05,03,09,09,11.20
2015,05,03,09,10,11.30
2015,05,03,09,11,11.30
2015,05,03,09,12,11.30
2015,05,03,09,13,11.40
2015,05,03,09,14,11.40
2015,05,03,09,15,11.40
2015,05,03,09,16,11.40
2015,05,03,09,17,11.40
2015,05,03,09,18,11.40
2015,05,03,09,19,11.40
2015,05,03,09,20,11.40
2015,05,03,09,21,11.50
2015,05,03,09,22,11.50
2015,05,03,09,23,11.60
2015,05,03,09,24,11.60
2015,05,03,09,25,11.60
2015,05,03,09,26,11.60
2015,05,03,09,27,11.60
2015,05,03,09,28,11.60
2015,05,03,09,29,11.60
2015,05,03,09,30,11.60
2015,05,03,09,31,11.60
2015,05,03,09,32,11.70
2015,05,03,09,33,11.80
2015,05,03,09,34,11.80
2015,05,03,09,35,11.90
2015,05,03,09,36,12.00
2015,05,03,09,37,12.00
2015,05,03,09,38,12.00
2015,05,03,09,39,12.00
2015,05,03,09,40,12.00
2015,05,03,09,41,12.00
2015,05,03,09,42,12.00
2015,05,03,09,43,12.10
2015,05,03,09,44,12.10
2015,05,03,09,45,12.10
2015,05,03,09,46,12.10
2015,05,03,09,47,12.10
2015,05,03,09,48,12.10
2015,05,03,09,49,12.10
2015,05,03,09,50,12.10
2015,05,03,09,51,12.10
2015,05,03,09,52,12.10
2015,05,03,09,53,12.20
2015,05,03,09,54,12.20
2015,05,03,09,55,12.20
2015,05,03,09,56,12.20
2015,05,03,09,57,12.20
2015,05,03,09,58,12.10
2015,05,03,09,59,12.00
2015,05,03,10,00,12.00
2015,05,03,10,01,12.00
2015,05,03,10,02,11.90
2015,05,03,10,03,11.90
2015,05,03,10,04,11.90
2015,05,03,10,05,11.90
2015,05,03,10,06,11.90
2015,05,03,10,07,11.90
2015,05,03,10,08,12.00
2015,05,03,10,09,12.00
2015,05,03,10,10,12.10
2015,05,03,10,11,12.10
2015,05,03,10,12,12.20
2015,05,03,10,13,12.20
2015,05,03,10,14,12.30
2015,05,03,10,15,12.30
2015,05,03,10,16,12.30
2015,05,03,10,17,12.40
2015,05,03,10,18,12.40
2015,05,03,10,19,12.40
2015,05,03,10,20,12.40
2015,05,03,10,21,12.40
2015,05,03,10,22,12.40
2015,05,03,10,23,12.50
2015,05,03,10,24,12.50
2015,05,03,10,25,12.50
2015,05,03,10,26,12.50
2015,05,03,10,27,12.60
2015,05,03,10,28,12.60
2015,05,03,10,29,12.70
2015,05,03,10,30,12.70
2015,05,03,10,31,12.80
2015,05,03,10,32,12.90
2015,05,03,10,33,13.00
2015,05,03,10,34,13.00
2015,05,03,10,35,13.10
2015,05,03,10,36,13.00
2015,05,03,10,37,13.00
2015,05,03,10,38,13.10
2015,05,03,10,39,13.10
2015,05,03,10,40,13.10
2015,05,03,10,41,13.20
2015,05,03,10,42,13.20
2015,05,03,10,43,13.30
2015,05,03,10,44,13.30
2015,05,03,10,45,13.30
2015,05,03,10,46,13.40
2015,05,03,10,47,13.40
2015,05,03,10,48,13.50
2015,05,03,10,49,13.50
2015,05,03,10,50,13.60
2015,05,03,10,51,13.60
2015,05,03,10,52,13.60
2015,05,03,10,53,13.60
2015,05,03,10,54,13.60
2015,05,03,10,55,13.60
2015,05,03,10,56,13.70
2015,05,03,10,57,13.70
2015,05,03,10,58,13.70
2015,05,03,10,59,13.80
2015,05,03,11,00,13.80
2015,05,03,11,01,13.80
2015,05,03,11,02,13.90
2015,05,03,11,03,13.80
2015,05,03,11,04,13.80
2015,05,03,11,05,13.70
2015,05,03,11,06,13.70
2015,05,03,11,07,13.70
2015,05,03,11,08,13.80
2015,05,03,11,09,13.80
2015,05,03,11,10,13.80
2015,05,03,11,11,13.90
2015,05,03,11,12,13.90
2015,05,03,11,13,13.90
2015,05,03,11,14,13.90
2015,05,03,11,15,13.90
2015,05,03,11,16,13.90
2015,05,03,11,17,13.90
2015,05,03,11,18,13.90
2015,05,03,11,19,13.90
2015,05,03,11,20,13.90
2015,05,03,11,21,13.90
2015,05,03,11,22,13.80
2015,05,03,11,23,13.80
2015,05,03,11,24,13.80
2015,05,03,11,25,13.80
2015,05,03,11,26,13.80
2015,05,03,11,27,13.80
2015,05,03,11,28,13.80
2015,05,03,11,29,13.80
2015,05,03,11,30,13.90
2015,05,03,11,31,13.90
2015,05,03,11,32,14.00
2015,05,03,11,33,14.00
2015,05,03,11,34,14.10
2015,05,03,11,35,14.20
2015,05,03,11,36,14.20
2015,05,03,11,37,14.20
2015,05,03,11,38,14.20
2015,05,03,11,39,14.20
2015,05,03,11,40,14.30
2015,05,03,11,41,14.30
2015,05,03,11,42,14.30
2015,05,03,11,43,14.30
2015,05,03,11,44,14.40
2015,05,03,11,45,14.40
2015,05,03,11,46,14.40
2015,05,03,11,47,14.40
2015,05,03,11,48,14.30
2015,05,03,11,49,14.30
2015,05,03,11,50,14.30
2015,05,03,11,51,14.20
2015,05,03,11,52,14.20
2015,05,03,11,53,14.20
2015,05,03,11,54,14.20
2015,05,03,11,55,14.20
2015,05,03,11,56,14.30
2015,05,03,11,57,14.50
2015,05,03,11,58,14.60
2015,05,03,11,59,14.70
2015,05,03,12,00,14.70
2015,05,03,12,01,14.80
2015,05,03,12,02,14.90
2015,05,03,12,03,15.00
2015,05,03,12,04,15.00
2015,05,03,12,05,15.10
2015,05,03,12,06,15.10
2015,05,03,12,07,15.10
2015,05,03,12,08,15.10
2015,05,03,12,09,15.00
2015,05,03,12,10,15.10
2015,05,03,12,11,15.10
2015,05,03,12,12,15.10
2015,05,03,12,13,15.10
2015,05,03,12,14,15.10
2015,05,03,12,15,15.10
2015,05,03,12,16,15.10
2015,05,03,12,17,15.00
2015,05,03,12,18,15.00
2015,05,03,12,19,15.00
2015,05,03,12,20,15.00
2015,05,03,12,21,15.10
2015,05,03,12,22,15.00
2015,05,03,12,23,15.10
2015,05,03,12,24,15.10
2015,05,03,12,25,15.10
2015,05,03,12,26,15.10
2015,05,03,12,27,15.20
2015,05,03,12,28,15.20
2015,05,03,12,29,15.20
2015,05,03,12,30,15.30
2015,05,03,12,31,15.40
2015,05,03,12,32,15.50
2015,05,03,12,33,15.60
2015,05,03,12,34,15.60
2015,05,03,12,35,15.60
2015,05,03,12,36,15.50
2015,05,03,12,37,15.40
2015,05,03,12,38,15.30
2015,05,03,12,39,15.20
2015,05,03,12,40,15.20
2015,05,03,12,41,15.10
2015,05,03,12,42,15.20
2015,05,03,12,43,15.10
2015,05,03,12,44,15.10
2015,05,03,12,45,15.10
2015,05,03,12,46,15.20
2015,05,03,12,47,15.30
2015,05,03,12,48,15.30
2015,05,03,12,49,15.30
2015,05,03,12,50,15.30
2015,05,03,12,51,15.30
2015,05,03,12,52,15.30
2015,05,03,12,53,15.30
2015,05,03,12,54,15.30
2015,05,03,12,55,15.40
2015,05,03,12,56,15.50
2015,05,03,12,57,15.60
2015,05,03,12,58,15.70
2015,05,03,12,59,15.80
2015,05,03,13,00,15.70
2015,05,03,13,01,15.70
2015,05,03,13,02,15.70
2015,05,03,13,03,15.70
2015,05,03,13,04,15.70
2015,05,03,13,05,15.70
2015,05,03,13,06,15.70
2015,05,03,13,07,15.70
2015,05,03,13,08,15.80
2015,05,03,13,09,15.80
2015,05,03,13,10,15.80
2015,05,03,13,11,15.90
2015,05,03,13,12,16.00
2015,05,03,13,13,16.10
2015,05,03,13,14,16.20
2015,05,03,13,15,16.30
2015,05,03,13,16,16.30
2015,05,03,13,17,16.30
2015,05,03,13,18,16.30
2015,05,03,13,19,16.30
2015,05,03,13,20,16.20
2015,05,03,13,21,16.20
2015,05,03,13,22,16.10
2015,05,03,13,23,16.10
2015,05,03,13,24,16.10
2015,05,03,13,25,16.10
2015,05,03,13,26,16.20
2015,05,03,13,27,16.30
2015,05,03,13,28,16.40
2015,05,03,13,29,16.50
2015,05,03,13,30,16.60
2015,05,03,13,31,16.70
2015,05,03,13,32,16.70
2015,05,03,13,33,16.80
2015,05,03,13,34,16.80
2015,05,03,13,35,16.90
2015,05,03,13,36,16.90
2015,05,03,13,37,16.90
2015,05,03,13,38,16.90
2015,05,03,13,39,16.90
2015,05,03,13,40,16.90
2015,05,03,13,41,16.90
2015,05,03,13,42,16.90
2015,05,03,13,43,16.90
2015,05,03,13,44,17.00
2015,05,03,13,45,17.00
2015,05,03,13,46,16.90
2015,05,03,13,47,16.80
2015,05,03,13,48,16.70
2015,05,03,13,49,16.60
2015,05,03,13,50,16.60
2015,05,03,13,51,16.60
2015,05,03,13,52,16.60
2015,05,03,13,53,16.70
2015,05,03,13,54,16.70
2015,05,03,13,55,16.70
2015,05,03,13,56,16.70
2015,05,03,13,57,16.60
2015,05,03,13,58,16.60
2015,05,03,13,59,16.60
2015,05,03,14,00,16.70
2015,05,03,14,01,16.70
2015,05,03,14,02,16.70
2015,05,03,14,03,16.80
2015,05,03,14,04,16.70
2015,05,03,14,05,16.70
2015,05,03,14,06,16.70
2015,05,03,14,07,16.60
2015,05,03,14,08,16.60
2015,05,03,14,09,16.60
2015,05,03,14,10,16.60
2015,05,03,14,11,16.70
2015,05,03,14,12,16.70
2015,05,03,14,13,16.70
2015,05,03,14,14,16.70
2015,05,03,14,15,16.70
2015,05,03,14,16,16.60
2015,05,03,14,17,16.50
2015,05,03,14,18,16.40
2015,05,03,14,19,16.30
2015,05,03,14,20,16.20
2015,05,03,14,21,16.20
2015,05,03,14,22,16.20
2015,05,03,14,23,16.30
2015,05,03,14,24,16.40
2015,05,03,14,25,16.50
2015,05,03,14,26,16.60
2015,05,03,14,27,16.80
2015,05,03,14,28,16.90
2015,05,03,14,29,17.00
2015,05,03,14,30,17.10
2015,05,03,14,31,17.20
2015,05,03,14,32,17.30
2015,05,03,14,33,17.40
2015,05,03,14,34,17.50
2015,05,03,14,35,17.50
2015,05,03,14,36,17.60
2015,05,03,14,37,17.60
2015,05,03,14,38,17.60
2015,05,03,14,39,17.70
2015,05,03,14,40,17.70
2015,05,03,14,41,17.70
2015,05,03,14,42,17.60
2015,05,03,14,43,17.60
2015,05,03,14,44,17.50
2015,05,03,14,45,17.40
2015,05,03,14,46,17.40
2015,05,03,14,47,17.30
2015,05,03,14,48,17.30
2015,05,03,14,49,17.30
2015,05,03,14,50,17.30
2015,05,03,14,51,17.40
2015,05,03,14,52,17.40
2015,05,03,14,53,17.40
2015,05,03,14,54,17.40
2015,05,03,14,55,17.40
2015,05,03,14,56,17.40
2015,05,03,14,57,17.40
2015,05,03,14,58,17.40
2015,05,03,14,59,17.30
2015,05,03,15,00,17.30
2015,05,03,15,01,17.30
2015,05,03,15,02,17.40
2015,05,03,15,03,17.40
2015,05,03,15,04,17.50
2015,05,03,15,05,17.50
2015,05,03,15,06,17.50
2015,05,03,15,07,17.50
2015,05,03,15,08,17.50
2015,05,03,15,09,17.50
2015,05,03,15,10,17.60
2015,05,03,15,11,17.60
2015,05,03,15,12,17.60
2015,05,03,15,13,17.60
2015,05,03,15,14,17.70
2015,05,03,15,15,17.70
2015,05,03,15,16,17.80
2015,05,03,15,17,17.90
2015,05,03,15,18,17.90
2015,05,03,15,19,17.90
2015,05,03,15,20,17.90
2015,05,03,15,21,18.00
2015,05,03,15,22,18.10
2015,05,03,15,23,18.20
2015,05,03,15,24,18.20
2015,05,03,15,25,18.30
2015,05,03,15,26,18.40
2015,05,03,15,27,18.40
2015,05,03,15,28,18.50
2015,05,03,15,29,18.50
2015,05,03,15,30,18.50
2015,05,03,15,31,18.50
2015,05,03,15,32,18.50
2015,05,03,15,33,18.60
2015,05,03,15,34,18.60
2015,05,03,15,35,18.60
2015,05,03,15,36,18.60
2015,05,03,15,37,18.70
2015,05,03,15,38,18.70
2015,05,03,15,39,18.80
2015,05,03,15,40,18.80
2015,05,03,15,41,18.80
2015,05,03,15,42,18.90
2015,05,03,15,43,18.90
2015,05,03,15,44,19.00
2015,05,03,15,45,19.00
2015,05,03,15,46,19.10
2015,05,03,15,47,19.10
2015,05,03,15,48,19.10
2015,05,03,15,49,19.20
2015,05,03,15,50,19.20
2015,05,03,15,51,19.20
2015,05,03,15,52,19.20
2015,05,03,15,53,19.30
2015,05,03,15,54,19.30
2015,05,03,15,55,19.40
2015,05,03,15,56,19.40
2015,05,03,15,57,19.40
2015,05,03,15,58,19.40
2015,05,03,15,59,19.40
2015,05,03,16,00,19.40
2015,05,03,16,01,19.30
2015,05,03,16,02,19.20
2015,05,03,16,03,19.20
2015,05,03,16,04,19.10
2015,05,03,16,05,19.10
2015,05,03,16,06,19.10
2015,05,03,16,07,19.10
2015,05,03,16,08,19.20
2015,05,03,16,09,19.20
2015,05,03,16,10,19.30
2015,05,03,16,11,19.30
2015,05,03,16,12,19.30
2015,05,03,16,13,19.30
2015,05,03,16,14,19.30
2015,05,03,16,15,19.30
2015,05,03,16,16,19.30
2015,05,03,16,17,19.30
2015,05,03,16,18,19.40
2015,05,03,16,19,19.40
2015,05,03,16,20,19.40
2015,05,03,16,21,19.50
2015,05,03,16,22,19.50
2015,05,03,16,23,19.50
2015,05,03,16,24,19.50
2015,05,03,16,25,19.60
2015,05,03,16,26,19.60
2015,05,03,16,27,19.60
2015,05,03,16,28,19.60
2015,05,03,16,29,19.60
2015,05,03,16,30,19.70
2015,05,03,16,31,19.70
2015,05,03,16,32,19.70
2015,05,03,16,33,19.70
2015,05,03,16,34,19.80
2015,05,03,16,35,19.80
2015,05,03,16,36,19.70
2015,05,03,16,37,19.70
2015,05,03,16,38,19.70
2015,05,03,16,39,19.60
2015,05,03,16,40,19.60
2015,05,03,16,41,19.50
2015,05,03,16,42,19.50
2015,05,03,16,43,19.50
2015,05,03,16,44,19.50
2015,05,03,16,45,19.50
2015,05,03,16,46,19.60
2015,05,03,16,47,19.70
2015,05,03,16,48,19.70
2015,05,03,16,49,19.80
2015,05,03,16,50,19.80
2015,05,03,16,51,19.80
2015,05,03,16,52,19.80
2015,05,03,16,53,19.80
2015,05,03,16,54,19.80
2015,05,03,16,55,19.70
2015,05,03,16,56,19.70
2015,05,03,16,57,19.80
2015,05,03,16,58,19.80
2015,05,03,16,59,19.80
2015,05,03,17,00,19.80
2015,05,03,17,01,19.80
2015,05,03,17,02,19.80
2015,05,03,17,03,19.70
2015,05,03,17,04,19.60
2015,05,03,17,05,19.50
2015,05,03,17,06,19.40
2015,05,03,17,07,19.30
2015,05,03,17,08,19.30
2015,05,03,17,09,19.30
2015,05,03,17,10,19.30
2015,05,03,17,11,19.40
2015,05,03,17,12,19.40
2015,05,03,17,13,19.60
2015,05,03,17,14,19.70
2015,05,03,17,15,19.70
2015,05,03,17,16,19.80
2015,05,03,17,17,19.80
2015,05,03,17,18,19.80
2015,05,03,17,19,19.80
2015,05,03,17,20,19.80
2015,05,03,17,21,19.80
2015,05,03,17,22,19.80
2015,05,03,17,23,19.80
2015,05,03,17,24,19.80
2015,05,03,17,25,19.80
2015,05,03,17,26,19.70
2015,05,03,17,27,19.70
2015,05,03,17,28,19.70
2015,05,03,17,29,19.70
2015,05,03,17,30,19.60
2015,05,03,17,31,19.60
2015,05,03,17,32,19.60
2015,05,03,17,33,19.50
2015,05,03,17,34,19.50
2015,05,03,17,35,19.40
2015,05,03,17,36,19.40
2015,05,03,17,37,19.50
2015,05,03,17,38,19.50
2015,05,03,17,39,19.50
2015,05,03,17,40,19.50
2015,05,03,17,41,19.40